Weather History for LTCD - November, 2012

Change the Weather History Date:

Wednesday, November 7, 2012

  Actual Average Record
Temperature  
Mean Temperature 51 °F -  
Max Temperature 68 °F 49 °F - ()
Min Temperature 34 °F 31 °F - ()
Degree Days  
Heating Degree Days 14    
Growing Degree Days 1 (Base 50)    
Moisture  
Dew Point 38 °F    
Average Humidity 68    
Maximum Humidity 100    
Minimum Humidity 22    
Precipitation  
Precipitation 0.00 in 0.05 in - ()
Sea Level Pressure  
Sea Level Pressure 30.10 in    
Wind  
Wind Speed 1 mph ()    
Max Wind Speed 5 mph    
Max Gust Speed -    
Visibility 6.2 miles    
Events      
T = Trace of Precipitation, MM = Missing Value Source: Averaged Metar Reports

Daily Weather History Graph

Daily Weather History Graph

Search for Another Location

Airport or City:

Trip Planner

Search our weather history database for the weather conditions in past years. The results will help you decide how hot, cold, wet, or windy it might be!

Date:

Astronomy

Nov. 07, 2012 Rise Set
Actual Time 5:57 AM EET 4:13 PM EET
Civil Twilight 5:29 AM EET 4:41 PM EET
Nautical Twilight 4:56 AM EET 5:13 PM EET
Astronomical Twilight 4:25 AM EET 5:45 PM EET
Moon 11:32 PM EET (11/7) 12:09 PM EET (11/7)
Length of Visible Light 11h 12m
Length of Day
10h 15m
Last Quarter, 46% of the Moon is Illuminated
Nov 7
Last Quarter
Nov 14
New
Nov 20
First Quarter
Nov 28
Full
Dec 6
Last Quarter

Hourly Weather History & Observations

Time (EET) Temp. Windchill Dew Point Humidity Pressure Visibility Wind Dir Wind Speed Gust Speed Precip Events Conditions
12:50 AM 39.2 °F - 37.4 °F 93% 30.15 in - Variable 1.2 mph - N/A   Clear
1:50 AM 35.6 °F - 35.6 °F 100% 30.15 in - Calm Calm - N/A   Clear
2:00 AM 36 °F - 36 °F 98%  in 12 mi Calm Calm - -  
2:50 AM 35.6 °F - 33.8 °F 93% 30.18 in - Variable 1.2 mph - N/A   Clear
3:50 AM 35.6 °F - 35.6 °F 100% 30.15 in - NNW 1.2 mph - N/A   Clear
4:50 AM 35.6 °F - 33.8 °F 93% 30.18 in - Calm Calm - N/A   Clear
5:50 AM 35.6 °F - 33.8 °F 93% 30.18 in - Variable 1.2 mph - N/A   Clear
6:50 AM 37.4 °F - 35.6 °F 93% 30.18 in 6.2 mi Variable 1.2 mph - N/A   Partly Cloudy
7:50 AM 42.8 °F - 39.2 °F 87% 30.18 in 4.3 mi Calm Calm - N/A   Partly Cloudy
8:00 AM 43 °F - 39 °F 80%  in 4 mi Calm Calm - -   Mist
8:50 AM 51.8 °F - 41.0 °F 67% 30.18 in 5.0 mi Calm Calm - N/A   Partly Cloudy
9:50 AM 57.2 °F - 39.2 °F 51% 30.15 in 6.2 mi Calm Calm - N/A   Partly Cloudy
10:50 AM 59.0 °F - 39.2 °F 48% 30.12 in 6.2 mi Variable 2.3 mph - N/A   Partly Cloudy
11:50 AM 62.6 °F - 37.4 °F 39% 30.09 in 6.2 mi WNW 1.2 mph - N/A   Scattered Clouds
12:50 PM 64.4 °F - 35.6 °F 34% 30.06 in 6.2 mi Variable 2.3 mph - N/A   Scattered Clouds
1:50 PM 66.2 °F - 35.6 °F 32% 30.06 in 6.2 mi Calm Calm - N/A   Scattered Clouds
2:00 PM 65 °F - 36 °F 22%  in 6 mi Calm Calm - -   Scattered Clouds
2:50 PM 66.2 °F - 35.6 °F 32% 30.04 in 6.2 mi Calm Calm - N/A   Scattered Clouds
3:50 PM 62.6 °F - 39.2 °F 42% 30.04 in 6.2 mi South 2.3 mph - N/A   Scattered Clouds
4:50 PM 60.8 °F - 39.2 °F 45% 30.04 in 6.2 mi Variable 2.3 mph - N/A   Mostly Cloudy
5:50 PM 55.4 °F - 41.0 °F 58% 30.04 in 6.2 mi Calm Calm - N/A   Partly Cloudy
6:50 PM 51.8 °F - 41.0 °F 67% 30.04 in 6.2 mi Variable 2.3 mph - N/A   Partly Cloudy
7:50 PM 50.0 °F - 41.0 °F 71% 30.04 in 6.2 mi Calm Calm - N/A   Partly Cloudy
8:00 PM 50 °F - 41 °F 61%  in 6 mi Calm Calm - -   Scattered Clouds
8:50 PM 50.0 °F - 41.0 °F 71% 30.04 in 6.2 mi Calm Calm - N/A   Scattered Clouds
9:50 PM 46.4 °F - 41.0 °F 81% 30.04 in 6.2 mi Calm Calm - N/A   Scattered Clouds
10:50 PM 46.4 °F 44.3 °F 41.0 °F 81% 30.04 in 6.2 mi West 4.6 mph - N/A   Scattered Clouds
11:50 PM 48.2 °F - 41.0 °F 76% 30.04 in 6.2 mi Calm Calm - N/A   Scattered Clouds